Location: Newark
(53.3333°N, 83.7500°E)
Time: 04:41:29
(UTC+00:00)

SR - Pass Details

Date: 12 November 2019
Orbit: 573 x 882 km, 66.7° (Epoch: 13 December)

Event Time Altitude Azimuth Distance (km) Brightness Sun altitude
Rises 14:40:19 0° 287° (WNW) 3,348 ? -36.4°
Reaches altitude 10° 14:43:17 10° 302° (WNW) 2,461 ? -36.8°
Enters shadow 14:46:58 22° 342° (NNW) 1,805 ? -37.3°
